Location: Unspecified
(44.0704°N, 88.6889°W)
Time: 16:01:24
(UTC+02:00)

Tiros 1 - All Passes

Search period start: 24 June 2019 00:00
Search period end: 04 July 2019 00:00
Orbit: 631 x 664 km, 48.4° (Epoch: 23 June)

Date Brightness Start Highest point End Pass type
(mag) Time Alt. Az. Time Alt. Az. Time Alt. Az.
24 Jun - 05:25:41 10° S 05:29:21 23° SE 05:33:02 10° E visible
24 Jun - 07:06:24 10° WSW 07:11:08 85° SSE 07:15:48 10° ENE visible
24 Jun - 08:49:02 10° W 08:53:36 50° N 08:58:08 10° ENE visible
24 Jun - 10:31:37 10° WNW 10:36:15 62° NNE 10:40:50 10° E visible
24 Jun - 12:13:57 10° WNW 12:18:25 47° SSW 12:22:49 10° SE daylight
25 Jun - 05:50:40 10° SW 05:55:09 45° SE 05:59:37 10° ENE visible
25 Jun - 07:32:37 10° W 07:37:17 64° NNW 07:41:56 10° ENE visible
25 Jun - 09:15:23 10° WNW 09:19:56 50° N 09:24:27 10° E visible
25 Jun - 10:57:45 10° WNW 11:02:25 88° SSW 11:07:03 10° ESE visible
25 Jun - 12:40:31 10° W 12:44:12 24° SW 12:47:53 10° SSE daylight
26 Jun - 04:35:50 10° S 04:39:24 21° SE 04:42:57 10° E visible
26 Jun - 06:16:24 10° WSW 06:21:08 81° SSE 06:25:49 10° ENE visible
26 Jun - 07:59:00 10° W 08:03:35 51° N 08:08:08 10° ENE visible
26 Jun - 09:41:37 10° WNW 09:46:15 60° NNE 09:50:50 10° E visible
26 Jun - 11:23:56 10° WNW 11:28:27 50° SSW 11:32:54 10° SE visible
26 Jun - 13:08:44 10° WSW 13:09:48 11° SW 13:10:52 10° SW daylight
27 Jun - 05:00:43 10° SW 05:05:11 42° SE 05:09:37 10° ENE visible
27 Jun - 06:42:35 10° W 06:47:17 66° NNW 06:51:57 10° ENE visible
27 Jun - 08:25:22 10° WNW 08:29:55 49° N 08:34:27 10° E visible
27 Jun - 10:07:45 10° WNW 10:12:26 88° NNE 10:17:05 10° ESE visible
27 Jun - 11:50:26 10° W 11:54:16 26° SW 11:58:03 10° SSE daylight
28 Jun - 03:46:02 10° S 03:49:27 20° SE 03:52:52 10° E daylight
28 Jun - 05:26:25 10° WSW 05:31:08 77° SSE 05:35:50 10° ENE visible
28 Jun - 07:08:58 10° W 07:13:34 52° N 07:18:08 10° ENE visible
28 Jun - 08:51:37 10° WNW 08:56:14 59° NNE 09:00:50 10° E visible
28 Jun - 10:33:56 10° WNW 10:38:29 54° SSW 10:42:58 10° SE visible
28 Jun - 12:18:12 10° WSW 12:19:53 12° SW 12:21:33 10° SSW daylight
29 Jun - 04:10:48 10° SSW 04:15:13 39° SE 04:19:36 10° ENE visible
29 Jun - 05:52:34 10° WSW 05:57:17 69° NNW 06:01:58 10° ENE visible
29 Jun - 07:35:20 10° WNW 07:39:55 49° N 07:44:27 10° ENE visible
29 Jun - 09:17:45 10° WNW 09:22:27 84° NNE 09:27:06 10° ESE visible
29 Jun - 11:00:22 10° W 11:04:19 27° SW 11:08:13 10° SSE visible
30 Jun - 02:56:14 10° S 02:59:30 19° SE 03:02:45 10° E daylight
30 Jun - 04:36:25 10° SW 04:41:09 73° SSE 04:45:51 10° ENE visible
30 Jun - 06:18:55 10° W 06:23:33 53° N 06:28:09 10° ENE visible
30 Jun - 08:01:36 10° WNW 08:06:14 57° NNE 08:10:50 10° E visible
30 Jun - 09:43:55 10° WNW 09:48:30 57° SSW 09:53:02 10° SE visible
30 Jun - 11:27:50 10° WSW 11:29:57 13° SW 11:32:03 10° SSW visible
01 Jul - 03:20:52 10° SSW 03:25:15 37° SE 03:29:35 10° ENE daylight
01 Jul - 05:02:32 10° WSW 05:07:17 72° NNW 05:11:59 10° ENE visible
01 Jul - 06:45:18 10° WNW 06:49:53 49° N 06:54:26 10° ENE visible
01 Jul - 08:27:45 10° WNW 08:32:27 80° NNE 08:37:07 10° ESE visible
01 Jul - 10:10:19 10° W 10:14:22 30° SW 10:18:22 10° SSE visible
02 Jul - 02:06:28 10° S 02:09:34 17° SE 02:12:38 10° E daylight
02 Jul - 03:46:26 10° SW 03:51:10 69° SSE 03:55:52 10° ENE daylight
02 Jul - 05:28:53 10° W 05:33:32 54° N 05:38:09 10° ENE visible
02 Jul - 07:11:35 10° WNW 07:16:13 56° N 07:20:49 10° E visible
02 Jul - 08:53:54 10° WNW 08:58:32 61° SSW 09:03:06 10° SE visible
02 Jul - 10:37:34 10° W 10:40:01 14° SW 10:42:27 10° SSW visible
03 Jul - 02:30:57 10° SSW 02:35:16 34° SE 02:39:34 10° ENE daylight
03 Jul - 04:12:30 10° WSW 04:17:16 75° NNW 04:22:00 10° ENE visible
03 Jul - 05:55:16 10° WNW 05:59:53 49° N 06:04:26 10° ENE visible
03 Jul - 07:37:44 10° WNW 07:42:27 77° NNE 07:47:07 10° ESE visible
03 Jul - 09:20:16 10° W 09:24:25 32° SW 09:28:30 10° SSE visible
